Location: Arapaho Elementary School
(32.9607°N, 96.7625°W)
Time: 03:41:56
(UTC+00:00)

CZ-2C R/B - Pass Details

Date: 11 July 2022
Orbit: 783 x 871 km, 98.2° (Epoch: 14 August)

Event Time Altitude Azimuth Distance (km) Brightness Sun altitude
Rises 10:51:12 0° 164° (SSE) 3,419 5.7 -7.4°
Reaches altitude 10° 10:53:33 10° 163° (SSE) 2,494 5.0 -7.0°
Maximum altitude 10:59:07 82° 76° (ENE) 882 2.9 -6.0°
Drops below altitude 10° 11:04:45 10° 350° (N) 2,522 5.5 -5.0°
Sets 11:07:09 0° 349° (N) 3,461 6.2 -4.5°
